Location: Hains Lake
(37.8540°N, 99.8578°W)
Time: 16:02:15
(UTC+00:00)

Cosmos 1634 Rocket - Pass Details

Date: 11 December 2019
Orbit: 960 x 991 km, 82.9° (Epoch: 28 January)

Event Time Altitude Azimuth Distance (km) Brightness Sun altitude
Rises 12:02:39 0° 194° (SSW) 3,656 7.0 -19.5°
Reaches altitude 10° 12:05:11 10° 197° (SSW) 2,708 6.3 -19.0°
Maximum altitude 12:11:19 64° 278° (W) 1,067 3.9 -17.9°
Drops below altitude 10° 12:17:28 10° 0° (N) 2,707 6.2 -16.7°
Sets 12:20:00 0° 4° (N) 3,654 6.9 -16.2°
